Location: Erba
(45.8000°N, 9.2500°E)
Time: 06:07:11
(UTC+01:00)

ISS - Pass Details

Date: 23 February 2020
Orbit: 415 x 423 km, 51.6° (Epoch: 27 February)

Event Time Altitude Azimuth Distance (km) Brightness Sun altitude
Exits shadow 05:54:53 - 206° (SSW) 1,633 -1.0 -14.4°
Reaches altitude 10° 05:55:15 10° 203° (SSW) 1,493 -1.2 -14.3°
Maximum altitude 05:58:14 30° 140° (SE) 777 -2.0 -13.8°
Drops below altitude 10° 06:01:15 10° 77° (ENE) 1,505 0.4 -13.3°
Sets 06:03:30 0° 67° (ENE) 2,375 1.4 -12.9°
